DW4391 Weather Reports


time (UTC)temp
C
wind
direction
speed
KPH
gust
KPH
rain 1hr
cm
rain 24hr
cm
rain mn
cm
humidity
%
barometer
mb
20260906113049 22 266 0.0 0.0 0.00 0.00 0.00 94 1009.2
20260906111550 22 266 0.0 0.0 0.00 0.00 0.00 94 1009.2
20260906110048 22 266 0.0 0.0 0.00 0.00 0.00 94 1009.2
20260906104549 22 266 0.0 0.0 0.00 0.00 0.00 94 1009.2
20260906103049 22 266 0.0 0.0 0.00 0.00 0.00 95 1009.1
20260906101547 21 266 0.0 0.0 0.00 0.00 0.00 95 1009.0
20260906100045 21 266 0.0 0.0 0.00 0.00 0.00 95 1009.2
20260906094555 21 266 0.0 0.0 0.00 0.00 0.00 95 1009.3
20260906093048 21 266 0.0 0.0 0.00 0.00 0.00 95 1009.3
20260906091542 21 266 0.0 0.0 0.00 0.00 0.00 95 1009.0
20260906090050 21 266 0.0 0.0 0.00 0.00 0.00 94 1009.1
20260906084540 21 266 0.0 0.0 0.00 0.00 0.00 94 1009.0
20260906083045 21 266 0.0 0.0 0.00 0.00 0.00 94 1008.8
20260906081536 22 266 0.0 0.0 0.00 0.00 0.00 93 1008.8
20260906080039 22 266 0.0 0.0 0.00 0.00 0.00 93 1008.7
20260906074535 22 266 0.0 0.0 0.00 0.00 0.00 94 1008.7
20260906073033 22 266 0.0 0.0 0.00 0.00 0.00 94 1008.7
20260906071531 22 266 0.0 0.0 0.00 0.00 0.00 94 1008.8
20260906070029 22 266 0.0 0.0 0.00 0.00 0.00 93 1008.8
20260906064531 22 266 0.0 0.0 0.00 0.00 0.00 93 1008.8
20260906063024 22 266 0.0 0.0 0.00 0.00 0.00 93 1009.0
20260906061522 22 267 0.0 0.0 0.00 0.00 0.00 92 1009.1
20260906060023 22 267 0.0 0.0 0.00 0.00 0.00 92 1009.2
20260906054519 22 267 0.0 0.0 0.00 0.00 0.00 91 1009.3
20260906053018 22 267 0.0 0.0 0.00 0.00 0.00 91 1009.2
20260906051518 22 267 0.0 0.0 0.00 0.00 0.00 91 1009.6
20260906050014 22 266 0.0 0.0 0.00 0.00 0.00 90 1009.4
20260906044517 22 267 0.0 0.0 0.00 0.00 0.00 90 1009.4
20260906043025 23 267 0.0 0.0 0.00 0.00 0.00 89 1009.5
20260906041510 23 267 0.0 0.0 0.00 0.00 0.00 89 1009.6
20260906040008 23 267 0.0 0.0 0.00 0.00 0.00 89 1009.3
20260906034507 23 267 0.0 0.0 0.00 0.00 0.00 89 1009.6
20260906033007 23 267 0.0 0.0 0.00 0.00 0.00 89 1009.8
20260906031510 23 267 0.0 0.0 0.00 0.00 0.00 88 1010.0
20260906030005 23 267 0.0 0.0 0.00 0.00 0.00 88 1010.0
20260906024505 23 267 0.0 0.0 0.00 0.00 0.00 88 1010.2
20260906023004 23 267 0.0 0.0 0.00 0.00 0.00 87 1010.5
20260906021505 23 267 0.0 0.0 0.00 0.00 0.00 86 1010.3
20260906020004 24 266 0.0 0.0 0.00 0.00 0.00 86 1010.3
20260906014505 24 266 0.0 0.0 0.00 0.00 0.00 85 1010.0
20260906013002 25 267 0.0 0.0 0.00 0.00 0.00 84 1010.0
20260906011502 25 266 0.0 0.0 0.00 0.00 0.00 83 1009.8
20260906010002 25 106 0.0 0.0 0.00 0.00 0.00 82 1009.4
20260906004501 25 119 0.0 1.6 0.00 0.00 0.00 79 1009.0
20260906003101 26 79 0.0 1.6 0.00 0.00 0.00 75 1008.8
20260906001606 26 72 3.2 6.4 0.00 0.00 0.00 73 1008.9
20260906000100 26 357 0.0 0.0 0.00 0.00 0.00 71 1008.1
20260905234601 26 357 0.0 0.0 0.00 0.00 0.00 71 1007.0
20260905233058 26 357 0.0 1.6 0.00 0.00 0.00 72 1006.8
20260905231559 26 70 1.6 11.3 0.00 0.00 0.00 72 1007.9
20260905230056 26 109 4.8 12.9 0.00 0.00 0.00 76 1008.8
20260905224555 29 66 8.0 24.1 0.00 0.00 0.00 69 1009.0
20260905223056 33 23 0.0 0.0 0.00 0.00 0.00 59 1007.1
20260905221559 33 259 0.0 0.0 0.00 0.00 0.00 58 1007.2
20260905220055 33 248 0.0 0.0 0.00 0.00 0.00 58 1007.1
20260905214553 33 247 0.0 0.0 0.00 0.00 0.00 58 1006.9
20260905213051 33 289 0.0 0.0 0.00 0.00 0.00 59 1006.8
20260905211552 33 290 0.0 0.0 0.00 0.00 0.00 58 1006.9
20260905210106 34 271 0.0 0.0 0.00 0.00 0.00 57 1007.2
20260905204547 34 255 0.0 0.0 0.00 0.00 0.00 58 1007.5
20260905203046 33 341 0.0 0.0 0.00 0.00 0.00 59 1007.7
20260905201543 33 243 0.0 0.0 0.00 0.00 0.00 58 1007.9
20260905200108 33 283 0.0 0.0 0.00 0.00 0.00 58 1008.1
20260905194540 33 180 0.0 0.0 0.00 0.00 0.00 60 1008.2
20260905193041 33 103 0.0 0.0 0.00 0.00 0.00 60 1008.3
20260905191537 33 317 0.0 0.0 0.00 0.00 0.00 61 1008.4
20260905190035 34 243 0.0 0.0 0.00 0.00 0.00 59 1008.7
20260905184540 33 144 0.0 0.0 0.00 0.00 0.00 59 1008.9
20260905183039 33 257 0.0 0.0 0.00 0.00 0.00 60 1009.2
20260905181535 33 287 0.0 0.0 0.00 0.00 0.00 60 1009.4
20260905180038 33 255 0.0 0.0 0.00 0.00 0.00 61 1009.5
20260905174527 34 30 0.0 0.0 0.00 0.00 0.00 57 1009.7
20260905173037 33 62 0.0 0.0 0.00 0.00 0.00 62 1009.9
20260905171521 33 82 0.0 0.0 0.00 0.00 0.00 62 1010.1
20260905170018 32 102 0.0 1.6 0.00 0.00 0.00 63 1010.2
20260905164515 32 294 0.0 4.8 0.00 0.00 0.00 65 1010.4
20260905163012 31 349 0.0 0.0 0.00 0.00 0.00 66 1010.5
20260905161512 31 342 0.0 0.0 0.00 0.00 0.00 67 1010.8
20260905160008 31 25 0.0 0.0 0.00 0.00 0.00 68 1011.0
20260905154505 30 65 0.0 0.0 0.00 0.00 0.00 70 1011.2
20260905153001 30 110 0.0 0.0 0.00 0.00 0.00 74 1011.3
20260905151624 29 6 0.0 0.0 0.00 0.00 0.00 75 1011.3
20260905150055 28 340 0.0 0.0 0.00 0.00 0.00 77 1011.3
20260905144553 28 340 0.0 0.0 0.00 0.00 0.00 78 1011.4
20260905143048 27 39 0.0 0.0 0.00 0.00 0.00 79 1011.5
20260905141546 27 91 0.0 0.0 0.00 0.00 0.00 82 1011.6
20260905140042 26 91 0.0 0.0 0.00 0.00 0.00 85 1011.7
20260905134541 25 91 0.0 0.0 0.00 0.00 0.00 86 1011.8
20260905133036 25 91 0.0 0.0 0.00 0.00 0.00 90 1011.8
20260905131541 24 91 0.0 0.0 0.00 0.00 0.00 94 1012.0
20260905130034 23 91 0.0 0.0 0.00 0.00 0.00 96 1012.1
20260905124535 23 91 0.0 0.0 0.00 0.00 0.00 97 1012.0
20260905123056 22 91 0.0 0.0 0.00 0.00 0.00 97 1012.0
20260905121530 22 91 0.0 0.0 0.00 0.00 0.00 97 1011.9
20260905120031 22 91 0.0 0.0 0.00 0.00 0.00 97 1011.7
20260905114528 22 91 0.0 0.0 0.00 0.00 0.00 96 1011.6